Flag for U.S.A. Weather past 2 weeks in Philadelphia, Pennsylvania, U.S.A.

Now
46 °F

More clouds than sun.


Feels Like: 43 °F
Forecast: 38 / 56 °F
Wind: 6 mph from Northeast

Location: Philadelphia International Airport


UV Index: 0 (Low)

Visibility: 10 mi


Pressure: 30.49 "Hg

Humidity: 54%

Dew point: 30 °F

Location of PhiladelphiaLocation

Historic Weather in Philadelphia

°F

Philadelphia temperature yesterday

Maximum temperature yesterday: 53 °F (at 1:54 PM)
Minimum temperature yesterday: 37 °F (at 4:54 AM)
Average temperature yesterday: 44 °F

Past Weeks' High & Low Weather Summary

 TemperatureHumidityPressure
High81 °F (Apr 13, 1:54 PM)93% (Apr 7, 9:54 PM)30.71 "Hg (Apr 7, 9:54 PM)
Low31 °F (Apr 16, 6:54 AM)17% (Apr 3, 1:54 PM)29.46 "Hg (Apr 8, 6:54 AM)
Average54 °F54%30.04 "Hg
* Reported Apr 3 10:54 AM — Apr 18 10:54 AM, Philadelphia, Weather by CustomWeather, © 2014

Note: Actual official high and low records may vary slightly from our data, if they occured in-between our weather recording intervals... More about our weather records

Advertising

Historic Weather Conditions — Data for Previous 24 hours

 ConditionsComfort  
Time TempWeatherWind HumidityBarometerVisibility
10:54 AM
Apr 18
45 °FMostly cloudy.7 mph53%30.50 "Hg10 mi
9:54 AM43 °FMostly cloudy.7 mph58%30.52 "Hg10 mi
8:54 AM42 °FOvercast.8 mph57%30.52 "Hg10 mi
7:54 AM41 °FOvercast.7 mph60%30.55 "Hg10 mi
6:54 AM39 °FOvercast.7 mph62%30.54 "Hg10 mi
5:54 AM39 °FPassing clouds.7 mph62%30.51 "Hg10 mi
4:54 AM39 °FMostly cloudy.10 mph62%30.52 "Hg10 mi
3:54 AM39 °FMostly cloudy.10 mph65%30.52 "Hg10 mi
2:54 AM39 °FMostly cloudy.10 mph65%30.56 "Hg10 mi
1:54 AM40 °FMostly cloudy.12 mph60%30.60 "Hg10 mi
12:54 AM40 °FMostly cloudy.9 mph63%30.63 "Hg10 mi
11:54 PM
Apr 17
39 °FMostly cloudy.6 mph67%30.61 "Hg10 mi
10:54 PM38 °FPassing clouds.8 mph68%30.61 "Hg10 mi
9:54 PM40 °FPassing clouds.9 mph60%30.63 "Hg10 mi
8:54 PM42 °FPassing clouds.12 mph55%30.63 "Hg10 mi
7:54 PM43 °FScattered clouds.12 mph51%30.63 "Hg10 mi
6:54 PM47 °FPartly sunny.15 mph44%30.63 "Hg10 mi
5:54 PM49 °FScattered clouds.13 mph44%30.63 "Hg10 mi
4:54 PM51 °FScattered clouds.13 mph41%30.63 "Hg10 mi
3:54 PM52 °FScattered clouds.13 mph41%30.64 "Hg10 mi
2:54 PM53 °FScattered clouds.12 mph37%30.65 "Hg10 mi
1:54 PM53 °FScattered clouds.13 mph38%30.66 "Hg10 mi
12:54 PM52 °FScattered clouds.9 mph37%30.68 "Hg10 mi
Weather by CustomWeather, © 2014

See weather overview